Weather History for KLPR - February, 2013

Change the Weather History Date:

Monday, February 18, 2013

  Actual Average (KCLE) Record (KCLE)
Temperature  
Mean Temperature 26 °F 31 °F  
Max Temperature 46 °F 38 °F 62 °F (1981)
Min Temperature 5 °F 24 °F -5 °F (1936)
Degree Days  
Heating Degree Days 40 34  
Month to date heating degree days 636  
Since 1 July heating degree days 3888  
Cooling Degree Days 0 0  
Month to date cooling degree days 0  
Year to date cooling degree days 0  
Moisture  
Dew Point 16 °F    
Average Humidity 61    
Maximum Humidity 84    
Minimum Humidity 48    
Precipitation  
Precipitation 0.00 in 0.09 in - ()
Month to date precipitation 1.47  
Year to date precipitation 4.19  
Snow  
Snow 0.00 in 0.50 in - ()
Month to date snowfall 9.7  
Since 1 July snowfall 47.0  
Snow Depth -    
Sea Level Pressure  
Sea Level Pressure 30.05 in    
Wind  
Wind Speed 11 mph (South)    
Max Wind Speed 20 mph    
Max Gust Speed 29 mph    
Visibility 10 miles    
Events      
T = Trace of Precipitation, MM = Missing Value Source: NWS Daily Summary

Daily Weather History Graph

Daily Weather History Graph

Search for Another Location

Airport or City:

Trip Planner

Search our weather history database for the weather conditions in past years. The results will help you decide how hot, cold, wet, or windy it might be!

Date:

Astronomy

Feb. 18, 2013 Rise Set
Actual Time 7:19 AM EST 6:06 PM EST
Civil Twilight 6:51 AM EST 6:34 PM EST
Nautical Twilight 6:18 AM EST 7:07 PM EST
Astronomical Twilight 5:46 AM EST 7:39 PM EST
Moon 11:49 AM EST (2/18) 1:59 AM EST (2/18)
Length of Visible Light 11h 43m
Length of Day
10h 47m
First Quarter, 58% of the Moon is Illuminated
Feb 18
First Quarter
Feb 25
Full
Mar 4
Last Quarter
Mar 11
New
Mar 19
First Quarter

Hourly Weather History & Observations

Time (EST) Temp. Windchill Dew Point Humidity Pressure Visibility Wind Dir Wind Speed Gust Speed Precip Events Conditions
12:53 AM 5.0 °F -2.1 °F -0.0 °F 80% 30.29 in 10.0 mi South 3.5 mph - N/A   Clear
1:53 AM 7.0 °F -3.3 °F 3.0 °F 84% 30.28 in 10.0 mi South 5.8 mph - N/A   Clear
2:53 AM 10.0 °F -0.9 °F 3.9 °F 76% 30.27 in 10.0 mi South 6.9 mph - N/A   Clear
3:53 AM 10.0 °F 1.8 °F 3.9 °F 76% 30.26 in 10.0 mi South 4.6 mph - N/A   Clear
4:53 AM 10.0 °F -0.9 °F 3.9 °F 76% 30.25 in 10.0 mi South 6.9 mph - N/A   Clear
5:53 AM 10.9 °F -0.8 °F 5.0 °F 77% 30.25 in 10.0 mi South 8.1 mph - N/A   Clear
6:53 AM 12.9 °F 0.7 °F 6.1 °F 74% 30.23 in 10.0 mi South 9.2 mph - N/A   Clear
7:53 AM 18.0 °F 4.2 °F 7.0 °F 62% 30.22 in 10.0 mi South 13.8 mph - N/A   Scattered Clouds
9:53 AM 23.0 °F 9.6 °F 10.0 °F 58% 30.17 in 10.0 mi South 16.1 mph - N/A   Partly Cloudy
10:53 AM 26.1 °F 13.1 °F 12.0 °F 55% 30.12 in 10.0 mi South 17.3 mph 26.5 mph N/A   Clear
11:53 AM 30.0 °F 18.3 °F 14.0 °F 51% 30.08 in 10.0 mi South 17.3 mph 27.6 mph N/A   Clear
12:53 PM 34.0 °F 23.4 °F 17.1 °F 50% 30.04 in 10.0 mi South 17.3 mph 28.8 mph 0.00 in   Clear
1:53 PM 37.0 °F 27.4 °F 19.0 °F 48% 30.01 in 10.0 mi South 17.3 mph 24.2 mph N/A   Clear
2:53 PM 39.9 °F 30.5 °F 21.9 °F 49% 29.97 in 10.0 mi South 19.6 mph 26.5 mph N/A   Clear
3:53 PM 42.1 °F 34.2 °F 25.0 °F 51% 29.95 in 10.0 mi South 16.1 mph 24.2 mph N/A   Clear
4:53 PM 43.0 °F 34.8 °F 26.1 °F 51% 29.93 in 10.0 mi South 18.4 mph 25.3 mph N/A   Clear
5:53 PM 42.1 °F 33.9 °F 27.0 °F 55% 29.90 in 10.0 mi South 17.3 mph - N/A   Clear
6:53 PM 43.0 °F 35.1 °F 27.0 °F 53% 29.89 in 10.0 mi South 17.3 mph - N/A   Scattered Clouds
7:53 PM 43.0 °F 35.4 °F 28.0 °F 56% 29.87 in 10.0 mi South 16.1 mph - N/A   Overcast
8:53 PM 43.0 °F 34.8 °F 28.9 °F 58% 29.83 in 10.0 mi South 18.4 mph - N/A   Overcast
9:53 PM 44.1 °F 36.2 °F 30.0 °F 58% 29.80 in 10.0 mi South 18.4 mph 24.2 mph N/A   Overcast
10:53 PM 46.0 °F 38.8 °F 30.0 °F 54% 29.75 in 10.0 mi South 18.4 mph - N/A   Overcast
11:53 PM 46.9 °F - 30.0 °F 52% 29.71 in 10.0 mi South 17.3 mph 27.6 mph N/A   Mostly Cloudy